Year,Month,Day,Hour,Minute,Value (Times are PST for insolation in W/m^2)
2016,12,07,09,29,123.00
2016,12,07,09,30,110.60
2016,12,07,09,31,72.30
2016,12,07,09,32,45.50
2016,12,07,09,33,33.00
2016,12,07,09,34,37.40
2016,12,07,09,35,41.50
2016,12,07,09,36,41.70
2016,12,07,09,37,34.60
2016,12,07,09,38,32.00
2016,12,07,09,39,34.30
2016,12,07,09,40,47.10
2016,12,07,09,41,58.00
2016,12,07,09,42,63.00
2016,12,07,09,43,53.60
2016,12,07,09,44,41.70
2016,12,07,09,45,40.00
2016,12,07,09,46,46.70
2016,12,07,09,47,41.80
2016,12,07,09,48,32.00
2016,12,07,09,49,30.00
2016,12,07,09,50,30.00
2016,12,07,09,51,30.00
2016,12,07,09,52,30.00
2016,12,07,09,53,31.60
2016,12,07,09,54,32.00
2016,12,07,09,55,35.60
2016,12,07,09,56,38.00
2016,12,07,09,57,34.00
2016,12,07,09,58,32.40
2016,12,07,09,59,32.50
2016,12,07,10,00,32.00
2016,12,07,10,01,30.50
2016,12,07,10,02,31.70
2016,12,07,10,03,32.00
2016,12,07,10,04,32.00
2016,12,07,10,05,32.00
2016,12,07,10,06,32.00
2016,12,07,10,07,32.00
2016,12,07,10,08,32.00
2016,12,07,10,09,32.00
2016,12,07,10,10,32.00
2016,12,07,10,11,28.40
2016,12,07,10,12,40.00
2016,12,07,10,13,41.10
2016,12,07,10,14,47.50
2016,12,07,10,15,58.70
2016,12,07,10,16,72.80
2016,12,07,10,17,68.80
2016,12,07,10,18,53.00
2016,12,07,10,19,62.70
2016,12,07,10,20,88.50
2016,12,07,10,21,87.20
2016,12,07,10,22,114.30
2016,12,07,10,23,137.30
2016,12,07,10,24,165.20
2016,12,07,10,25,173.00
2016,12,07,10,26,171.40
2016,12,07,10,27,98.90
2016,12,07,10,28,89.00
2016,12,07,10,29,61.60
2016,12,07,10,30,60.20
2016,12,07,10,31,73.10
2016,12,07,10,32,80.00
2016,12,07,10,33,75.00
2016,12,07,10,34,80.80
2016,12,07,10,35,140.40
2016,12,07,10,36,198.60
2016,12,07,10,37,235.80
2016,12,07,10,38,285.00
2016,12,07,10,39,332.40
2016,12,07,10,40,279.10
2016,12,07,10,41,256.80
2016,12,07,10,42,317.50
2016,12,07,10,43,338.70
2016,12,07,10,44,295.80
2016,12,07,10,45,283.00
2016,12,07,10,46,87.80
2016,12,07,10,47,104.00
2016,12,07,10,48,123.50
2016,12,07,10,49,85.60
2016,12,07,10,50,49.00
2016,12,07,10,51,52.00
2016,12,07,10,52,47.30
2016,12,07,10,53,42.50
2016,12,07,10,54,43.80
2016,12,07,10,55,46.10
2016,12,07,10,56,48.40
2016,12,07,10,57,50.10
2016,12,07,10,58,45.20
2016,12,07,10,59,48.90
2016,12,07,11,00,48.00
2016,12,07,11,01,48.10
2016,12,07,11,02,53.00
2016,12,07,11,03,85.20
2016,12,07,11,04,103.00
2016,12,07,11,05,115.90
2016,12,07,11,06,124.00
2016,12,07,11,07,121.30
2016,12,07,11,08,147.60
2016,12,07,11,09,181.80
2016,12,07,11,10,192.00
2016,12,07,11,11,130.30
2016,12,07,11,12,116.30
2016,12,07,11,13,100.00
2016,12,07,11,14,102.00
2016,12,07,11,15,147.50
2016,12,07,11,16,191.00
2016,12,07,11,17,185.00
2016,12,07,11,18,185.00
2016,12,07,11,19,185.00
2016,12,07,11,20,200.30
2016,12,07,11,21,236.10
2016,12,07,11,22,441.00
2016,12,07,11,23,441.00
2016,12,07,11,24,453.90
2016,12,07,11,25,450.60
2016,12,07,11,26,445.00
2016,12,07,11,27,477.50
2016,12,07,11,28,489.50
2016,12,07,11,29,491.60
2016,12,07,11,30,484.70
2016,12,07,11,31,480.50
2016,12,07,11,32,467.70
2016,12,07,11,33,451.70
2016,12,07,11,34,446.10
2016,12,07,11,35,452.90
2016,12,07,11,36,455.00
2016,12,07,11,37,455.00
2016,12,07,11,38,443.30
2016,12,07,11,39,445.80
2016,12,07,11,40,438.70
2016,12,07,11,41,434.60
2016,12,07,11,42,424.60
2016,12,07,11,43,432.00
2016,12,07,11,44,446.50
2016,12,07,11,45,446.00
2016,12,07,11,46,161.20
2016,12,07,11,47,120.30
2016,12,07,11,48,135.80
2016,12,07,11,49,133.60
2016,12,07,11,50,120.00
2016,12,07,11,51,134.30
2016,12,07,11,52,156.70
2016,12,07,11,53,133.80
2016,12,07,11,54,181.90
2016,12,07,11,55,132.70
2016,12,07,11,56,204.30
2016,12,07,11,57,146.00
2016,12,07,11,58,127.70
2016,12,07,11,59,93.90
2016,12,07,12,00,97.00
2016,12,07,12,01,266.40
2016,12,07,12,02,413.50
2016,12,07,12,03,431.00
2016,12,07,12,04,379.50
2016,12,07,12,05,88.00
2016,12,07,12,06,88.00
2016,12,07,12,07,88.00
2016,12,07,12,08,88.00
2016,12,07,12,09,88.00
2016,12,07,12,10,187.00
2016,12,07,12,11,220.00
2016,12,07,12,12,220.00
2016,12,07,12,13,201.10
2016,12,07,12,14,110.50
2016,12,07,12,15,88.50
2016,12,07,12,16,82.10
2016,12,07,12,17,56.80
2016,12,07,12,18,49.30
2016,12,07,12,19,56.80
2016,12,07,12,20,53.60
2016,12,07,12,21,59.10
2016,12,07,12,22,50.60
2016,12,07,12,23,48.40
2016,12,07,12,24,47.90
2016,12,07,12,25,49.00
2016,12,07,12,26,47.30
2016,12,07,12,27,43.00
2016,12,07,12,28,40.40
2016,12,07,12,29,40.00
2016,12,07,12,30,39.00
2016,12,07,12,31,39.20
2016,12,07,12,32,39.70
2016,12,07,12,33,39.00
2016,12,07,12,34,39.50
2016,12,07,12,35,42.70
2016,12,07,12,36,42.40
2016,12,07,12,37,42.00
2016,12,07,12,38,41.80
2016,12,07,12,39,40.00
2016,12,07,12,40,40.60
2016,12,07,12,41,41.10
2016,12,07,12,42,39.50
2016,12,07,12,43,39.00
2016,12,07,12,44,39.00
2016,12,07,12,45,39.80
2016,12,07,12,46,40.00
2016,12,07,12,47,39.90
2016,12,07,12,48,38.50
2016,12,07,12,49,37.00
2016,12,07,12,50,37.00
2016,12,07,12,51,37.00
2016,12,07,12,52,37.00
2016,12,07,12,53,37.00
2016,12,07,12,54,37.00
2016,12,07,12,55,36.80
2016,12,07,12,56,35.00
2016,12,07,12,57,35.00
2016,12,07,12,58,35.00
2016,12,07,12,59,35.00
2016,12,07,13,00,35.00
2016,12,07,13,01,33.60
2016,12,07,13,02,33.00
2016,12,07,13,03,33.00
2016,12,07,13,04,33.00
2016,12,07,13,05,33.00
2016,12,07,13,06,33.00
2016,12,07,13,07,33.00
2016,12,07,13,08,33.00
2016,12,07,13,09,33.00
2016,12,07,13,10,32.30
2016,12,07,13,11,32.00
2016,12,07,13,12,32.00
2016,12,07,13,13,32.00
2016,12,07,13,14,32.00
2016,12,07,13,15,32.00
2016,12,07,13,16,32.00
2016,12,07,13,17,32.00
2016,12,07,13,18,32.00
2016,12,07,13,19,32.00
2016,12,07,13,20,32.00
2016,12,07,13,21,32.00
2016,12,07,13,22,31.60
2016,12,07,13,23,30.00
2016,12,07,13,24,30.00
2016,12,07,13,25,30.00
2016,12,07,13,26,30.00
2016,12,07,13,27,30.00
2016,12,07,13,28,30.00
2016,12,07,13,29,30.00
2016,12,07,13,30,30.00
2016,12,07,13,31,30.00
2016,12,07,13,32,30.00
2016,12,07,13,33,30.00
2016,12,07,13,34,30.00
2016,12,07,13,35,30.00
2016,12,07,13,36,30.00
2016,12,07,13,37,30.00
2016,12,07,13,38,30.00
2016,12,07,13,39,30.00
2016,12,07,13,40,31.20
2016,12,07,13,41,36.90
2016,12,07,13,42,41.80
2016,12,07,13,43,50.90
2016,12,07,13,44,39.90
2016,12,07,13,45,30.60
2016,12,07,13,46,28.20
2016,12,07,13,47,28.00
2016,12,07,13,48,28.00
2016,12,07,13,49,28.00
2016,12,07,13,50,28.00
2016,12,07,13,51,28.00
2016,12,07,13,52,28.00
2016,12,07,13,53,28.00
2016,12,07,13,54,26.30
2016,12,07,13,55,26.10
2016,12,07,13,56,27.70
2016,12,07,13,57,26.00
2016,12,07,13,58,26.00
2016,12,07,13,59,26.00
2016,12,07,14,00,26.00
2016,12,07,14,01,26.00
2016,12,07,14,02,26.00
2016,12,07,14,03,26.00
2016,12,07,14,04,26.00
2016,12,07,14,05,26.00
2016,12,07,14,06,26.00
2016,12,07,14,07,26.00
2016,12,07,14,08,26.00
2016,12,07,14,09,26.00
2016,12,07,14,10,26.00
2016,12,07,14,11,26.00
2016,12,07,14,12,26.00
2016,12,07,14,13,26.00
2016,12,07,14,14,26.00
2016,12,07,14,15,26.00
2016,12,07,14,16,26.00
2016,12,07,14,17,26.00
2016,12,07,14,18,26.00
2016,12,07,14,19,25.20
2016,12,07,14,20,25.00
2016,12,07,14,21,25.00
2016,12,07,14,22,25.00
2016,12,07,14,23,25.00
2016,12,07,14,24,25.00
2016,12,07,14,25,25.00
2016,12,07,14,26,25.00
2016,12,07,14,27,25.00
2016,12,07,14,28,25.00
2016,12,07,14,29,25.00
2016,12,07,14,30,25.00
2016,12,07,14,31,25.00
2016,12,07,14,32,25.00
2016,12,07,14,33,25.00
2016,12,07,14,34,25.00
2016,12,07,14,35,25.00
2016,12,07,14,36,23.50
2016,12,07,14,37,23.00
2016,12,07,14,38,23.00
2016,12,07,14,39,23.00
2016,12,07,14,40,23.00
2016,12,07,14,41,23.00
2016,12,07,14,42,23.00
2016,12,07,14,43,23.00
2016,12,07,14,44,23.00
2016,12,07,14,45,23.00
2016,12,07,14,46,23.00
2016,12,07,14,47,23.00
2016,12,07,14,48,22.70
2016,12,07,14,49,21.00
2016,12,07,14,50,21.00
2016,12,07,14,51,21.00
2016,12,07,14,52,21.00
2016,12,07,14,53,21.00
2016,12,07,14,54,21.00
2016,12,07,14,55,21.00
2016,12,07,14,56,21.00
2016,12,07,14,57,21.00
2016,12,07,14,58,21.00
2016,12,07,14,59,21.00
2016,12,07,15,00,21.00
2016,12,07,15,01,21.00
2016,12,07,15,02,19.50
2016,12,07,15,03,19.00
2016,12,07,15,04,19.00
2016,12,07,15,05,18.90
2016,12,07,15,06,18.00
2016,12,07,15,07,18.00
2016,12,07,15,08,18.00
2016,12,07,15,09,18.00
2016,12,07,15,10,18.00
2016,12,07,15,11,18.00
2016,12,07,15,12,18.00
2016,12,07,15,13,18.00
2016,12,07,15,14,18.00
2016,12,07,15,15,18.00
2016,12,07,15,16,18.00
2016,12,07,15,17,18.00
2016,12,07,15,18,18.00
2016,12,07,15,19,18.00
2016,12,07,15,20,18.00
2016,12,07,15,21,18.00
2016,12,07,15,22,18.00
2016,12,07,15,23,18.00
2016,12,07,15,24,18.00
2016,12,07,15,25,17.10
2016,12,07,15,26,16.00
2016,12,07,15,27,16.00
2016,12,07,15,28,16.00
2016,12,07,15,29,16.00
2016,12,07,15,30,16.00
2016,12,07,15,31,16.00
2016,12,07,15,32,16.00
2016,12,07,15,33,16.00
2016,12,07,15,34,16.00
2016,12,07,15,35,16.00
2016,12,07,15,36,16.00
2016,12,07,15,37,16.00
2016,12,07,15,38,16.00
2016,12,07,15,39,16.00
2016,12,07,15,40,16.00
